Weather History for Cape Cod CGAS, MA

Change the Weather History Date:

Sunday, September 29, 2013

  Actual Average Record
Temperature  
Mean Temperature 52 °F -  
Max Temperature 64 °F 64 °F 78 °F (2010)
Min Temperature 39 °F 47 °F 37 °F (2000)
Degree Days  
Heating Degree Days 14    
Growing Degree Days 2 (Base 50)    
Moisture  
Dew Point 49 °F    
Average Humidity 84    
Maximum Humidity 100    
Minimum Humidity 59    
Precipitation  
Precipitation 0.00 in - - ()
Sea Level Pressure  
Sea Level Pressure 30.19 in    
Wind  
Wind Speed 4 mph (ENE)    
Max Wind Speed 15 mph    
Max Gust Speed -    
Visibility 10 miles    
Events Fog , Rain    
Averages and records for this station are not official NWS values.
T = Trace of Precipitation, MM = Missing Value Source: NWS Daily Summary

Daily Weather History Graph

Daily Weather History Graph

Search for Another Location

Airport:

Trip Planner

Search our weather history database for the weather conditions in past years. The results will help you decide how hot, cold, wet, or windy it might be!

Date:

Astronomy

Sep. 29, 2013 Rise Set
Actual Time 6:37 AM EDT 6:26 PM EDT
Civil Twilight 6:09 AM EDT 6:54 PM EDT
Nautical Twilight 5:37 AM EDT 7:26 PM EDT
Astronomical Twilight 5:04 AM EDT 7:59 PM EDT
Moon 1:11 AM EDT (9/29) 3:24 PM EDT (9/29)
Length of Visible Light 12h 45m
Length of Day
11h 49m
Waning Crescent, 27% of the Moon is Illuminated
Sep 29
Waning Crescent
Oct 4
New
Oct 11
First Quarter
Oct 18
Full
Oct 26
Last Quarter

Hourly Weather History & Observations

Time (EDT) Temp. Windchill Dew Point Humidity Pressure Visibility Wind Dir Wind Speed Gust Speed Precip Events Conditions
12:15 AM 42.8 °F 41.1 °F 41.0 °F 93% 30.26 in 10.0 mi NNE 3.5 mph - N/A   Clear
12:35 AM 44.6 °F - 42.8 °F 93% 30.26 in 10.0 mi Calm Calm - N/A   Clear
12:55 AM 44.6 °F - 42.8 °F 93% 30.26 in 4.0 mi Calm Calm - N/A   Clear
1:15 AM 44.6 °F 42.2 °F 42.8 °F 93% 30.26 in 9.0 mi NE 4.6 mph - N/A   Clear
1:35 AM 44.6 °F - 44.6 °F 100% 30.26 in 10.0 mi Calm Calm - N/A   Clear
1:55 AM 41.0 °F - 39.2 °F 93% 30.25 in 10.0 mi Calm Calm - N/A   Clear
2:15 AM 42.8 °F - 41.0 °F 93% 30.24 in 10.0 mi Calm Calm - N/A   Clear
2:35 AM 41.0 °F - 41.0 °F 100% 30.24 in 10.0 mi Calm Calm - N/A   Clear
2:55 AM 42.8 °F 41.1 °F 41.0 °F 93% 30.23 in 10.0 mi NNE 3.5 mph - N/A   Clear
3:15 AM 39.2 °F - 37.4 °F 93% 30.23 in 10.0 mi Calm Calm - N/A   Clear
3:35 AM 41.0 °F 39.0 °F 39.2 °F 93% 30.22 in 5.0 mi North 3.5 mph - N/A   Clear
3:55 AM 41.0 °F - 39.2 °F 93% 30.23 in 2.0 mi Calm Calm - N/A   Clear
4:15 AM 41.0 °F 39.0 °F 41.0 °F 100% 30.22 in 10.0 mi North 3.5 mph - N/A   Clear
4:35 AM 39.2 °F 37.0 °F 39.2 °F 100% 30.22 in 10.0 mi NE 3.5 mph - N/A   Clear
4:55 AM 39.2 °F - 39.2 °F 100% 30.22 in 9.0 mi Calm Calm - N/A   Clear
5:15 AM 41.0 °F - 39.2 °F 93% 30.22 in 10.0 mi Calm Calm - N/A   Clear
5:35 AM 39.2 °F - 39.2 °F 100% 30.22 in 10.0 mi Calm Calm - N/A   Partly Cloudy
5:55 AM 41.0 °F - 39.2 °F 93% 30.22 in 10.0 mi Calm Calm - N/A   Scattered Clouds
6:15 AM 41.0 °F 39.0 °F 41.0 °F 100% 30.22 in 10.0 mi NNE 3.5 mph - N/A   Partly Cloudy
6:35 AM 41.0 °F 39.0 °F 39.2 °F 93% 30.22 in 7.0 mi ENE 3.5 mph - N/A   Clear
6:55 AM 41.0 °F 39.0 °F 41.0 °F 100% 30.22 in 0.5 mi ENE 3.5 mph - N/A Fog Fog
7:15 AM 41.0 °F 39.0 °F 39.2 °F 93% 30.22 in 10.0 mi NNE 3.5 mph - N/A   Clear
7:35 AM 48.2 °F - 46.4 °F 93% 30.22 in 10.0 mi NE 5.8 mph - N/A   Clear
7:55 AM 50.0 °F - 48.2 °F 94% 30.23 in 10.0 mi East 4.6 mph - N/A   Partly Cloudy
8:15 AM 51.8 °F - 50.0 °F 94% 30.23 in 9.0 mi East 4.6 mph - N/A   Partly Cloudy
8:35 AM 53.6 °F - 51.8 °F 94% 30.23 in 10.0 mi East 5.8 mph - N/A   Scattered Clouds
8:55 AM 55.4 °F - 50.0 °F 82% 30.23 in 10.0 mi East 5.8 mph - N/A   Mostly Cloudy
9:15 AM 55.4 °F - 51.8 °F 88% 30.24 in 10.0 mi ENE 5.8 mph - N/A   Overcast
9:35 AM 57.2 °F - 50.0 °F 77% 30.24 in 10.0 mi East 10.4 mph - N/A   Mostly Cloudy
9:55 AM 57.2 °F - 50.0 °F 77% 30.23 in 10.0 mi ESE 6.9 mph - N/A   Clear
10:15 AM 59.0 °F - 50.0 °F 72% 30.23 in 10.0 mi NE 4.6 mph - N/A   Scattered Clouds
10:35 AM 59.0 °F - 50.0 °F 72% 30.23 in 10.0 mi East 5.8 mph - N/A   Mostly Cloudy
10:55 AM 60.8 °F - 48.2 °F 63% 30.22 in 10.0 mi SE 3.5 mph - N/A   Partly Cloudy
11:15 AM 60.8 °F - 50.0 °F 68% 30.21 in 10.0 mi Calm Calm - N/A   Clear
11:35 AM 62.6 °F - 48.2 °F 59% 30.20 in 10.0 mi ESE 4.6 mph - N/A   Clear
11:55 AM 62.6 °F - 48.2 °F 59% 30.20 in 10.0 mi East 4.6 mph - N/A   Clear
12:15 PM 64.4 °F - 50.0 °F 59% 30.19 in 10.0 mi East 4.6 mph - N/A   Partly Cloudy
12:35 PM 64.4 °F - 50.0 °F 59% 30.19 in 10.0 mi ESE 6.9 mph - N/A   Partly Cloudy
12:55 PM 64.4 °F - 50.0 °F 59% 30.19 in 10.0 mi East 8.1 mph - N/A Rain Light Rain
1:15 PM 64.4 °F - 51.8 °F 64% 30.18 in 10.0 mi NE 8.1 mph - N/A Rain Light Rain
1:35 PM 64.4 °F - 50.0 °F 59% 30.18 in 10.0 mi NE 8.1 mph - N/A Rain Light Rain
1:55 PM 64.4 °F - 51.8 °F 64% 30.17 in 10.0 mi NE 9.2 mph - N/A Rain Light Rain
2:15 PM 64.4 °F - 51.8 °F 64% 30.16 in 10.0 mi NNE 9.2 mph - N/A   Scattered Clouds
2:35 PM 64.4 °F - 51.8 °F 64% 30.16 in 10.0 mi NNE 9.2 mph - N/A   Overcast
2:55 PM 64.4 °F - 51.8 °F 64% 30.16 in 10.0 mi NE 9.2 mph - N/A   Mostly Cloudy
3:15 PM 62.6 °F - 51.8 °F 68% 30.15 in 10.0 mi East 8.1 mph - N/A   Overcast
3:35 PM 62.6 °F - 51.8 °F 68% 30.15 in 10.0 mi NE 9.2 mph - N/A   Overcast
3:55 PM 62.6 °F - 53.6 °F 72% 30.15 in 10.0 mi ENE 9.2 mph - N/A   Overcast
4:15 PM 62.6 °F - 53.6 °F 72% 30.15 in 10.0 mi ENE 8.1 mph - N/A   Overcast
4:35 PM 62.6 °F - 51.8 °F 68% 30.15 in 10.0 mi NE 9.2 mph - N/A   Overcast
4:55 PM 60.8 °F - 51.8 °F 72% 30.15 in 10.0 mi ENE 9.2 mph - N/A   Overcast
5:15 PM 62.6 °F - 53.6 °F 72% 30.14 in 10.0 mi NE 8.1 mph - N/A   Overcast
5:35 PM 59.0 °F - 53.6 °F 82% 30.14 in 10.0 mi NE 9.2 mph - N/A   Scattered Clouds
5:55 PM 59.0 °F - 53.6 °F 82% 30.14 in 10.0 mi ENE 10.4 mph - N/A   Scattered Clouds
6:15 PM 57.2 °F - 53.6 °F 88% 30.14 in 10.0 mi NE 6.9 mph - N/A   Mostly Cloudy
6:35 PM 57.2 °F - 53.6 °F 88% 30.14 in 10.0 mi NE 6.9 mph - N/A   Overcast
6:55 PM 57.2 °F - 53.6 °F 88% 30.14 in 10.0 mi NE 6.9 mph - N/A   Overcast
7:15 PM 57.2 °F - 53.6 °F 88% 30.14 in 10.0 mi NE 6.9 mph - N/A   Overcast
7:35 PM 57.2 °F - 55.4 °F 94% 30.15 in 10.0 mi ENE 6.9 mph - N/A   Overcast
7:55 PM 57.2 °F - 55.4 °F 94% 30.15 in 10.0 mi East 6.9 mph - N/A   Overcast
8:15 PM 57.2 °F - 55.4 °F 94% 30.14 in 10.0 mi East 8.1 mph - N/A   Overcast
8:35 PM 57.2 °F - 55.4 °F 94% 30.13 in 10.0 mi East 9.2 mph - N/A   Overcast
8:55 PM 55.4 °F - 53.6 °F 94% 30.13 in 10.0 mi East 8.1 mph - N/A   Mostly Cloudy
9:15 PM 57.2 °F - 55.4 °F 94% 30.12 in 10.0 mi East 6.9 mph - N/A   Mostly Cloudy
9:35 PM 57.2 °F - 55.4 °F 94% 30.12 in 10.0 mi East 8.1 mph - N/A   Overcast
9:55 PM 57.2 °F - 55.4 °F 94% 30.11 in 10.0 mi East 8.1 mph - N/A   Overcast
10:15 PM 57.2 °F - 55.4 °F 94% 30.11 in 10.0 mi ENE 6.9 mph - N/A   Overcast
10:35 PM 57.2 °F - 55.4 °F 94% 30.12 in 10.0 mi ENE 6.9 mph - N/A   Overcast
10:55 PM 57.2 °F - 55.4 °F 94% 30.12 in 10.0 mi ENE 4.6 mph - N/A   Overcast
11:15 PM 59.0 °F - 55.4 °F 88% 30.12 in 10.0 mi ENE 4.6 mph - N/A   Overcast
11:35 PM 57.2 °F - 55.4 °F 94% 30.11 in 10.0 mi ENE 6.9 mph - N/A   Overcast
11:55 PM 57.2 °F - 55.4 °F 94% 30.11 in 10.0 mi ENE 6.9 mph - N/A   Overcast